TimeCDT,TemperatureF,Dew PointF,Humidity,Sea Level PressureIn,VisibilityMPH,Wind Direction,Wind SpeedMPH,Gust SpeedMPH,PrecipitationIn,Events,Conditions,WindDirDegrees,DateUTC
12:54 AM,59.0,50.0,72,29.92,10.0,SE,10.4,-,N/A,,Clear,130,2013-09-26 05:54:00
1:54 AM,59.0,50.0,72,29.94,10.0,SE,10.4,-,N/A,,Clear,130,2013-09-26 06:54:00
2:54 AM,57.0,50.0,77,29.94,10.0,ESE,11.5,-,N/A,,Clear,120,2013-09-26 07:54:00
3:54 AM,55.0,50.0,83,29.94,10.0,ESE,8.1,-,N/A,,Clear,120,2013-09-26 08:54:00
4:54 AM,55.0,50.0,83,29.95,10.0,ESE,8.1,-,N/A,,Mostly Cloudy,120,2013-09-26 09:54:00
5:54 AM,54.0,50.0,86,29.95,8.0,ESE,10.4,-,N/A,,Clear,120,2013-09-26 10:54:00
6:54 AM,53.1,50.0,89,29.96,7.0,ESE,8.1,-,N/A,,Clear,120,2013-09-26 11:54:00
7:54 AM,55.0,51.1,86,29.97,6.0,SE,9.2,-,N/A,,Mostly Cloudy,130,2013-09-26 12:54:00
8:54 AM,60.1,52.0,75,29.97,9.0,SE,11.5,-,N/A,,Clear,140,2013-09-26 13:54:00
9:54 AM,64.0,54.0,70,29.97,10.0,SSE,11.5,-,N/A,,Clear,150,2013-09-26 14:54:00
10:54 AM,69.1,55.9,63,29.97,10.0,SSE,9.2,-,N/A,,Clear,150,2013-09-26 15:54:00
11:54 AM,75.0,57.9,55,29.96,10.0,SSE,12.7,-,N/A,,Clear,160,2013-09-26 16:54:00
12:54 PM,79.0,59.0,50,29.94,10.0,SSE,13.8,24.2,N/A,,Clear,160,2013-09-26 17:54:00
1:54 PM,82.0,59.0,45,29.91,10.0,SSE,18.4,27.6,N/A,,Clear,160,2013-09-26 18:54:00
2:54 PM,81.0,59.0,47,29.91,10.0,SSE,18.4,24.2,N/A,,Partly Cloudy,160,2013-09-26 19:54:00
3:54 PM,82.0,57.9,44,29.89,10.0,SSE,17.3,24.2,N/A,,Partly Cloudy,160,2013-09-26 20:54:00
4:54 PM,82.0,57.9,44,29.89,10.0,SSE,15.0,20.7,N/A,,Partly Cloudy,150,2013-09-26 21:54:00
5:54 PM,81.0,57.9,45,29.90,10.0,SSE,12.7,20.7,N/A,,Clear,160,2013-09-26 22:54:00
6:54 PM,77.0,57.9,52,29.90,10.0,SSE,9.2,-,N/A,,Clear,150,2013-09-26 23:54:00
7:54 PM,73.0,59.0,61,29.91,10.0,SE,9.2,-,N/A,,Clear,130,2013-09-27 00:54:00
8:54 PM,73.9,59.0,59,29.92,10.0,SE,16.1,-,N/A,,Clear,140,2013-09-27 01:54:00
9:54 PM,72.0,59.0,64,29.94,10.0,SSE,13.8,-,N/A,,Clear,150,2013-09-27 02:54:00
10:54 PM,71.1,59.0,66,29.95,10.0,SSE,15.0,-,N/A,,Clear,150,2013-09-27 03:54:00
11:54 PM,69.1,59.0,70,29.96,10.0,SSE,12.7,21.9,N/A,,Clear,150,2013-09-27 04:54:00